Raton, NM

1:32 PM MDT on September 30, 2016 (GMT -0600)
Raton Municipal-Crews

Weather History for KRTN - February, 2014

Change the Weather History Date:

Saturday, February 8, 2014

  Actual Average (KTAD) Record (KTAD)
Temperature  
Mean Temperature 36 °F 34 °F  
Max Temperature 54 °F 49 °F 73 °F (1957)
Min Temperature 18 °F 19 °F -12 °F (2011)
Degree Days  
Heating Degree Days 29 31  
Month to date heating degree days 255  
Since 1 July heating degree days 3537  
Cooling Degree Days 0 0  
Month to date cooling degree days 0  
Year to date cooling degree days 0  
Moisture  
Dew Point 17 °F    
Average Humidity 43    
Maximum Humidity 78    
Minimum Humidity 23    
Precipitation  
Precipitation 0.00 in 0.02 in 0.34 in (2001)
Sea Level Pressure  
Sea Level Pressure 29.92 in    
Wind  
Wind Speed 10 mph (NW)    
Max Wind Speed 26 mph    
Max Gust Speed 39 mph    
Visibility 10 miles    
Events      
T = Trace of Precipitation, MM = Missing Value Source: NWS Daily Summary

Daily Weather History Graph

Daily Weather History Graph

Search for Another Location

Airport or City:

Trip Planner

Search our weather history database for the weather conditions in past years. The results will help you decide how hot, cold, wet, or windy it might be!

Date:

Astronomy

Feb. 08, 2014 Rise Set
Actual Time 6:53 AM MST 5:31 PM MST
Civil Twilight 6:26 AM MST 5:58 PM MST
Nautical Twilight 5:56 AM MST 6:28 PM MST
Astronomical Twilight 5:26 AM MST 6:58 PM MST
Moon 12:29 PM MST (2/8) 2:06 AM MST (2/8)
Length of Visible Light 11h 31m
Length of Day
10h 37m
Waxing Gibbous, 69% of the Moon is Illuminated
Feb 8
Waxing Gibbous
Feb 14
Full
Feb 22
Last Quarter
Mar 1
New
Mar 8
First Quarter

Hourly Weather History & Observations

Time (MST) Temp. Windchill Dew Point Humidity Pressure Visibility Wind Dir Wind Speed Gust Speed Precip Events Conditions
12:53 AM 28.0 °F 24.2 °F 12.9 °F 53% 29.93 in 10.0 mi ESE 3.5 mph - N/A   Clear
1:53 AM 26.1 °F 16.8 °F 12.9 °F 58% 29.92 in 10.0 mi NE 9.2 mph - N/A   Clear
2:53 AM 21.9 °F 15.7 °F 12.9 °F 68% 29.91 in 10.0 mi NE 4.6 mph - N/A   Clear
3:53 AM 25.0 °F 19.3 °F 12.0 °F 58% 29.90 in 10.0 mi North 4.6 mph - N/A   Clear
4:53 AM 21.9 °F - 12.0 °F 66% 29.91 in 10.0 mi Calm Calm - N/A   Clear
5:53 AM 18.0 °F 8.7 °F 12.0 °F 78% 29.92 in 10.0 mi ENE 6.9 mph - N/A   Clear
6:53 AM 27.0 °F 20.5 °F 14.0 °F 58% 29.93 in 10.0 mi NNE 5.8 mph - N/A   Clear
7:53 AM 28.9 °F 23.9 °F 16.0 °F 58% 29.95 in 10.0 mi ENE 4.6 mph - N/A   Clear
8:53 AM 44.1 °F 39.5 °F 19.0 °F 37% 29.89 in 10.0 mi West 8.1 mph 26.5 mph N/A   Clear
9:53 AM 48.0 °F - 19.0 °F 32% 29.92 in 10.0 mi WNW 21.9 mph 31.1 mph N/A   Clear
10:07 AM 48.9 °F - 19.0 °F 31% 29.95 in 10.0 mi West 24.2 mph 33.4 mph N/A   Clear
10:53 AM 48.9 °F - 17.1 °F 28% 29.90 in 10.0 mi WNW 21.9 mph 39.1 mph N/A   Clear
11:53 AM 53.1 °F - 19.0 °F 26% 29.88 in 10.0 mi WNW 10.4 mph 18.4 mph N/A   Clear
12:53 PM 53.1 °F - 19.0 °F 26% 29.86 in 10.0 mi WNW 19.6 mph 32.2 mph N/A   Clear
1:53 PM 54.0 °F - 18.0 °F 24% 29.86 in 10.0 mi West 24.2 mph 33.4 mph N/A   Clear
2:53 PM 54.0 °F - 17.1 °F 23% 29.89 in 10.0 mi West 23.0 mph 32.2 mph N/A   Clear
3:53 PM 52.0 °F - 19.0 °F 27% 29.91 in 10.0 mi West 16.1 mph 31.1 mph N/A   Clear
4:53 PM 48.9 °F - 19.0 °F 31% 29.95 in 10.0 mi West 15.0 mph 27.6 mph N/A   Clear
5:53 PM 46.9 °F - 18.0 °F 32% 29.99 in 10.0 mi WNW 26.5 mph 34.5 mph N/A   Clear
6:53 PM 45.0 °F 37.9 °F 18.0 °F 34% 29.98 in 10.0 mi NW 16.1 mph 26.5 mph N/A   Clear
7:53 PM 39.0 °F 35.7 °F 19.0 °F 45% 30.01 in 10.0 mi SE 4.6 mph - N/A   Clear
8:53 PM 43.0 °F 40.3 °F 18.0 °F 37% 29.94 in 10.0 mi Variable 4.6 mph - N/A   Clear
9:53 PM 37.0 °F 29.8 °F 19.0 °F 48% 29.95 in 10.0 mi NW 10.4 mph - N/A   Clear
10:53 PM 35.1 °F 30.1 °F 21.0 °F 57% 29.95 in 10.0 mi East 5.8 mph - N/A   Clear
11:53 PM 36.0 °F 32.1 °F 19.0 °F 50% 29.92 in 10.0 mi WNW 4.6 mph - N/A   Clear